Regional Weather Roundup
Issued by NWS

Home | Current Version | Previous Version | Text Only | Print | Product List | Glossary On
Versions: 1 2 3 4 5 6 7 8 9 10 11 12 13 14 15 16 17 18 19 20 21 22 23 24 25 26 27 28 29 30 31 32 33 34 35 36 37 38 39 40 41 42 43 44 45 46 47 48 49 50
430
ASUS43 KLSX 271210
RWRMO

WEATHER SUMMARY FOR MISSOURI
NATIONAL WEATHER SERVICE SPRINGFIELD MO
700 AM CDT WED JUL 27 2016

NOTE: "FAIR" INDICATES FEW OR NO CLOUDS BELOW 12,000 FEET WITH NO
       SIGNIFICANT WEATHER AND/OR OBSTRUCTIONS TO VISIBILITY.
       CURRENT SKY AND/OR WEATHER CONDITIONS ARE NOT AVAILABLE FOR
       CHILLICOTHE AND FARMINGTON.

MOZ001>031-035>038-043-044-053-054-271300-
...NORTHERN AND WESTERN MISSOURI...

CITY           SKY/WX    TMP DP  RH WIND       PRES   REMARKS
KANSAS CTY INT PTCLDY    69  66  90 E3        30.00F
6HR MIN TEMP:  66; 6HR MAX TEMP:  75;

KANSAS C DTWN  CLEAR     72  68  87 CALM      29.99S
6HR MIN TEMP:  72; 6HR MAX TEMP:  77;

LEE`S SUMMIT   CLEAR     71  67  87 N6        30.01R
6HR MIN TEMP:  70; 6HR MAX TEMP:  76;

ST JOSEPH      CLOUDY    65  63  93 CALM      29.99F
6HR MIN TEMP:  64; 6HR MAX TEMP:  69;

CHILLICOTHE      N/A     68  66  93 CALM      30.02S
6HR MIN TEMP:  67; 6HR MAX TEMP:  70;

KIRKSVILLE     RAIN      70  65  84 NE3       30.02S
6HR MIN TEMP:  63; 6HR MAX TEMP:  70; 6HR PCP: TRACE;


$$
MOZ066>068-077>081-088>096-101>105-271300-
...SOUTHWEST MISSOURI...

CITY           SKY/WX    TMP DP  RH WIND       PRES   REMARKS
SPRINGFIELD    TSTM      73  70  90 E5        30.01F FOG
6HR MIN TEMP:  73; 6HR MAX TEMP:  74; 6HR PCP:  1.70;

JOPLIN         CLOUDY    72  71  97 E5        29.99F FOG
6HR MIN TEMP:  70; 6HR MAX TEMP:  73;

BRANSON        FOG       73  73 100 SE3       30.02R VSB 1/4

$$
MOZ032>034-039>042-045>050-055>058-069>072-271300-
...CENTRAL MISSOURI...

CITY           SKY/WX    TMP DP  RH WIND       PRES   REMARKS
COLUMBIA       CLEAR     72  72 100 CALM      30.00F FOG
6HR MIN TEMP:  71; 6HR MAX TEMP:  74;

JEFFERSON CITY PTCLDY    73  72  96 CALM      29.99S FOG
6HR MIN TEMP:  72; 6HR MAX TEMP:  74;

ROLLA          CLOUDY    72  71  97 SE5       30.01S
6HR MIN TEMP:  70; 6HR MAX TEMP:  72;

SEDALIA        CLEAR     73  71  93 CALM      30.00F FOG
6HR MIN TEMP:  71; 6HR MAX TEMP:  75;

WHITEMAN AFB   PTCLDY    72  72 100 S3        29.99R
OSAGE BEACH    CLOUDY    72  72 100 SE3       30.01S FOG

$$
MOZ051-052-059>065-271300-
...EAST CENTRAL MISSOURI...

CITY           SKY/WX    TMP DP  RH WIND       PRES   REMARKS
ST LOUIS INTL  CLOUDY    78  71  79 S7        30.01S
6HR MIN TEMP:  78; 6HR MAX TEMP:  79;

SPIRIT OF STL  CLOUDY    75  74  96 CALM      30.00R
6HR MIN TEMP:  74; 6HR MAX TEMP:  76;

ST CHARLES     MOSUNNY   76  76 100 CALM      29.99S FOG
6HR MIN TEMP:  75; 6HR MAX TEMP:  77;


$$
MOZ072>076-082>087-097>100-106>115-271300-
...SOUTH CENTRAL AND SOUTHEAST MISSOURI...

CITY           SKY/WX    TMP DP  RH WIND       PRES   REMARKS
CAPE GIRARDEAU SUNNY     73  72  96 CALM      29.99S FOG
6HR MIN TEMP:  72; 6HR MAX TEMP:  75;

FARMINGTON     RAIN      72  71  97 W6        30.05R
6HR MIN TEMP:  70; 6HR MAX TEMP:  72; 6HR PCP: TRACE;

POPLAR BLUFF   FOG       74  73  97 NE3       29.99R VSB 1/4
6HR MIN TEMP:  73; 6HR MAX TEMP:  75;

WEST PLAINS    CLEAR     72  68  87 N3        30.04S
6HR MIN TEMP:  71; 6HR MAX TEMP:  73;


$$




USA.gov is the U.S. government's official web portal to all federal, state and local government web resources and services.